Location: *
(57.8420°S, 159.8600°W)
Time: 03:39:29
(UTC+00:00)

In-Cosmos 22 Rocket - Pass Details

Date: 18 May 2021
Orbit: 789 x 889 km, 81.2° (Epoch: 23 June)

Event Time Altitude Azimuth Distance (km) Brightness Sun altitude
Rises 03:49:52 0° 349° (N) 3,297 7.7 -10.6°
Reaches altitude 10° 03:52:14 10° 349° (N) 2,372 7.0 -10.9°
Maximum altitude 03:57:35 85° 76° (ENE) 816 4.1 -11.6°
Drops below altitude 10° 04:03:03 10° 164° (SSE) 2,417 6.3 -12.3°
Sets 04:05:28 0° 164° (SSE) 3,364 7.0 -12.6°
